Location: Bussy-Saint-Georges
(48.8410°N, 2.7017°E)
Time: 15:47:27
(UTC+00:00)

Cosmos 1892 Rocket - Pass Details

Date: 18 October 2021
Orbit: 605 x 634 km, 82.5° (Epoch: 29 November)

Event Time Altitude Azimuth Distance (km) Brightness Sun altitude
Rises 17:48:37 0° 352° (N) 2,941 7.1 -9.8°
Reaches altitude 10° 17:50:54 10° 356° (N) 2,025 6.2 -10.2°
Maximum altitude 17:55:21 62° 78° (ENE) 714 3.6 -10.9°
Drops below altitude 10° 17:59:44 10° 159° (SSE) 1,994 6.0 -11.6°
Sets 18:01:58 0° 163° (SSE) 2,891 6.8 -12.0°
